834  
ASUS43 KLSX 232307  
RWRMO  
 
WEATHER SUMMARY FOR MISSOURI  
NATIONAL WEATHER SERVICE SPRINGFIELD MO  
600 PM CDT SAT MAR 23 2019  
 
NOTE: "FAIR" INDICATES FEW OR NO CLOUDS BELOW 12,000 FEET WITH NO  
SIGNIFICANT WEATHER AND/OR S TO VISIBILITY
.  
CURRENT SKY AND/OR WEATHER CONDITIONS ARE NOT AVAILABLE FOR  
CHILLICOTHE AND FARMINGTON.  
 
MOZ001>031-035>038-043-044-053-054-240000-   
..NORTHERN AND WESTERN MISSOURI
 
 
 
CITY SKY/WX TMP DP RH WIND PRES REMARKS
 
KANSAS CTY INT CLOUDY 57 46 66 S9 30.01R  
KANSAS C DTWN CLOUDY 60 45 57 SE7 30.00R  
LEE'S SUMMIT PTSUNNY 56 45 66 S8 30.01S  
ST JOSEPH N/A N/A N/A N/A MISG 30.02F  
CHILLICOTHE N/A 59 39 47 SE9 30.05F  
KIRKSVILLE CLOUDY 55 36 48 SE12 30.11F  
 

 
MOZ066>068-077>081-088>096-101>105-240000-   
..SOUTHWEST MISSOURI
 
 
 
CITY SKY/WX TMP DP RH WIND PRES REMARKS
 
SPRINGFIELD LGT RAIN 51 43 74 SE13 30.09S  
JOPLIN LGT RAIN 51 49 92 NE6 30.05S FOG  
BRANSON LGT RAIN 48 45 87 SE15 30.11F  
 

 
MOZ032>034-039>042-045>050-055>058-069>072-240000-   
..CENTRAL MISSOURI
 
 
 
CITY SKY/WX TMP DP RH WIND PRES REMARKS
 
COLUMBIA CLOUDY 59 36 42 S10 30.14R  
JEFFERSON CITY CLOUDY 61 34 36 SE10G18 30.14R  
ROLLA LGT RAIN 54 36 50 SE17G23 30.16S  
SEDALIA CLOUDY 52 32 46 S16 30.09S  
WHITEMAN AFB CLOUDY 53 46 78 SE25G32 29.96F  
WARRENSBURG CLOUDY 54 45 71 SE20G26 30.00F  
OSAGE BEACH CLOUDY 58 37 45 SW6 30.16R  
 

 
MOZ051-052-059>065-240000-   
..EAST CENTRAL MISSOURI
 
 
 
CITY SKY/WX TMP DP RH WIND PRES REMARKS
 
ST LOUIS INTL CLOUDY 57 31 37 SE12 30.20F  
SPIRIT OF STL PTSUNNY 59 32 36 SE3 30.18F  
ST CHARLES CLOUDY 57 35 43 SE9 30.19F  
 

 
MOZ072>076-082>087-097>100-106>115-240000-   
..SOUTH CENTRAL AND SOUTHEAST MISSOURI
 
 
 
CITY SKY/WX TMP DP RH WIND PRES REMARKS
 
CAPE GIRARDEAU FAIR 60 33 36 CALM 30.23S  
FARMINGTON LGT RAIN 50 43 77 CALM 30.22F  
POPLAR BLUFF CLOUDY 59 39 47 E7 30.18F  
WEST PLAINS CLOUDY 51 46 83 E8 30.15F  
 

 
 
 
CLICK HERE TO GO TO PREVIOUS BULLETINS.

The Nexlab MO Page Main Text Page